Time,TemperatureF,DewpointF,PressureIn,WindDirection,WindDirectionDegrees,WindSpeedMPH,WindSpeedGustMPH,Humidity,HourlyPrecipIn,Conditions,Clouds,dailyrainin,SoftwareType,DateUTC
2013-01-13 00:03:00,30.0,22.0,29.86,NW,320,3.0,10.0,73,-99.99,,,-99.99,,2013-01-13 05:03:00,
2013-01-13 00:12:00,30.0,22.0,29.86,NW,320,3.0,10.0,73,-99.99,,,-99.99,,2013-01-13 05:12:00,
2013-01-13 00:22:00,30.0,22.0,29.86,North,10,4.0,11.0,74,-99.99,,,-99.99,,2013-01-13 05:22:00,
2013-01-13 00:32:00,29.0,22.0,29.85,North,0,4.0,11.0,75,-99.99,,,-99.99,,2013-01-13 05:32:00,
2013-01-13 00:42:00,29.0,22.0,29.85,North,0,4.0,11.0,75,-99.99,,,-99.99,,2013-01-13 05:42:00,
2013-01-13 00:52:00,29.0,22.0,29.86,North,5,6.0,15.0,76,-99.99,,,-99.99,,2013-01-13 05:52:00,
2013-01-13 01:03:00,28.0,22.0,29.86,NNE,20,4.0,16.0,75,-99.99,,,-99.99,,2013-01-13 06:03:00,
2013-01-13 01:12:00,28.0,22.0,29.86,NNE,20,4.0,16.0,75,-99.99,,,-99.99,,2013-01-13 06:12:00,
2013-01-13 01:22:00,28.0,21.0,29.88,NW,315,4.0,12.0,75,-99.99,,,-99.99,,2013-01-13 06:22:00,
2013-01-13 01:32:00,28.0,21.0,29.89,WNW,290,6.0,13.0,74,-99.99,,,-99.99,,2013-01-13 06:32:00,
2013-01-13 01:42:00,28.0,21.0,29.89,WNW,290,6.0,13.0,74,-99.99,,,-99.99,,2013-01-13 06:42:00,
2013-01-13 01:52:00,28.0,20.0,29.89,NNW,340,8.0,14.0,73,-99.99,,,-99.99,,2013-01-13 06:52:00,
2013-01-13 02:02:00,27.0,20.0,29.88,NNW,340,6.0,15.0,72,-99.99,,,-99.99,,2013-01-13 07:02:00,
2013-01-13 02:12:00,27.0,20.0,29.88,NNW,340,6.0,15.0,72,-99.99,,,-99.99,,2013-01-13 07:12:00,
2013-01-13 02:22:00,27.0,19.0,29.88,NNW,335,7.0,15.0,72,-99.99,,,-99.99,,2013-01-13 07:22:00,
2013-01-13 02:32:00,27.0,19.0,29.86,NW,325,5.0,14.0,72,-99.99,,,-99.99,,2013-01-13 07:32:00,
2013-01-13 02:42:00,27.0,19.0,29.86,NW,325,5.0,14.0,72,-99.99,,,-99.99,,2013-01-13 07:42:00,
2013-01-13 02:52:00,26.0,19.0,29.87,WNW,295,8.0,16.0,72,-99.99,,,-99.99,,2013-01-13 07:52:00,
2013-01-13 03:02:00,26.0,19.0,29.88,NNW,345,5.0,15.0,72,-99.99,,,-99.99,,2013-01-13 08:02:00,
2013-01-13 03:12:00,26.0,19.0,29.88,NNW,345,5.0,15.0,72,-99.99,,,-99.99,,2013-01-13 08:12:00,
2013-01-13 03:22:00,26.0,18.0,29.88,NW,305,7.0,14.0,71,-99.99,,,-99.99,,2013-01-13 08:22:00,
2013-01-13 03:32:00,26.0,18.0,29.86,NNE,15,4.0,14.0,70,-99.99,,,-99.99,,2013-01-13 08:32:00,
2013-01-13 03:42:00,26.0,18.0,29.86,NNE,15,4.0,14.0,70,-99.99,,,-99.99,,2013-01-13 08:42:00,
2013-01-13 03:52:00,26.0,18.0,29.88,WNW,295,9.0,18.0,71,-99.99,,,-99.99,,2013-01-13 08:52:00,
2013-01-13 04:02:00,26.0,18.0,29.89,West,275,6.0,16.0,72,-99.99,,,-99.99,,2013-01-13 09:02:00,
2013-01-13 04:12:00,26.0,18.0,29.89,West,275,6.0,16.0,72,-99.99,,,-99.99,,2013-01-13 09:12:00,
2013-01-13 04:22:00,25.0,18.0,29.88,NW,315,11.0,21.0,72,-99.99,,,-99.99,,2013-01-13 09:22:00,
2013-01-13 04:32:00,25.0,17.0,29.88,NW,305,9.0,19.0,70,-99.99,,,-99.99,,2013-01-13 09:32:00,
2013-01-13 04:42:00,25.0,17.0,29.88,NW,305,9.0,19.0,70,-99.99,,,-99.99,,2013-01-13 09:42:00,
2013-01-13 04:52:00,25.0,16.0,29.88,West,275,8.0,17.0,70,-99.99,,,-99.99,,2013-01-13 09:52:00,
2013-01-13 05:02:00,24.0,16.0,29.88,NW,305,5.0,14.0,69,-99.99,,,-99.99,,2013-01-13 10:02:00,
2013-01-13 05:12:00,24.0,16.0,29.88,NW,305,5.0,14.0,69,-99.99,,,-99.99,,2013-01-13 10:12:00,
2013-01-13 05:22:00,24.0,16.0,29.86,NW,305,7.0,15.0,69,-99.99,,,-99.99,,2013-01-13 10:22:00,
2013-01-13 05:32:00,24.0,16.0,29.85,NNW,335,7.0,13.0,70,-99.99,,,-99.99,,2013-01-13 10:32:00,
2013-01-13 05:42:00,24.0,16.0,29.85,NNW,335,7.0,13.0,70,-99.99,,,-99.99,,2013-01-13 10:42:00,
2013-01-13 05:52:00,24.0,16.0,29.83,WNW,295,6.0,16.0,71,-99.99,,,-99.99,,2013-01-13 10:52:00,
2013-01-13 06:02:00,24.0,16.0,29.84,WNW,290,9.0,16.0,71,-99.99,,,-99.99,,2013-01-13 11:02:00,
2013-01-13 06:12:00,24.0,16.0,29.84,WNW,290,9.0,16.0,71,-99.99,,,-99.99,,2013-01-13 11:12:00,
2013-01-13 06:22:00,24.0,16.0,29.85,WNW,290,6.0,16.0,71,-99.99,,,-99.99,,2013-01-13 11:22:00,
2013-01-13 06:32:00,24.0,16.0,29.85,NW,305,9.0,16.0,71,-99.99,,,-99.99,,2013-01-13 11:32:00,
2013-01-13 06:42:00,24.0,16.0,29.85,NW,305,9.0,16.0,71,-99.99,,,-99.99,,2013-01-13 11:42:00,
2013-01-13 06:52:00,24.0,16.0,29.85,NW,325,4.0,13.0,71,-99.99,,,-99.99,,2013-01-13 11:52:00,
2013-01-13 07:03:00,24.0,17.0,29.86,NW,320,8.0,19.0,72,-99.99,,,-99.99,,2013-01-13 12:03:00,
2013-01-13 07:12:00,24.0,17.0,29.86,NW,320,8.0,19.0,72,-99.99,,,-99.99,,2013-01-13 12:12:00,
2013-01-13 07:22:00,24.0,17.0,29.86,NNW,330,6.0,16.0,72,-99.99,,,-99.99,,2013-01-13 12:22:00,
2013-01-13 07:33:00,24.0,17.0,29.86,WNW,300,9.0,19.0,73,-99.99,,,-99.99,,2013-01-13 12:33:00,
2013-01-13 07:42:00,24.0,17.0,29.86,WNW,300,9.0,19.0,73,-99.99,,,-99.99,,2013-01-13 12:42:00,
2013-01-13 07:52:00,24.0,17.0,29.85,NW,325,9.0,17.0,73,-99.99,,,-99.99,,2013-01-13 12:52:00,
2013-01-13 08:03:00,24.0,17.0,29.85,WNW,300,6.0,16.0,74,-99.99,,,-99.99,,2013-01-13 13:03:00,
2013-01-13 08:12:00,24.0,17.0,29.85,WNW,300,6.0,16.0,74,-99.99,,,-99.99,,2013-01-13 13:12:00,
2013-01-13 08:22:00,24.0,17.0,29.86,NW,310,8.0,13.0,74,-99.99,,,-99.99,,2013-01-13 13:22:00,
2013-01-13 08:33:00,25.0,18.0,29.88,NNW,330,5.0,13.0,75,-99.99,,,-99.99,,2013-01-13 13:33:00,
2013-01-13 08:42:00,25.0,18.0,29.88,NNW,330,5.0,13.0,75,-99.99,,,-99.99,,2013-01-13 13:42:00,
2013-01-13 08:53:00,25.0,18.0,29.87,WNW,300,6.0,14.0,75,-99.99,,,-99.99,,2013-01-13 13:53:00,
2013-01-13 09:03:00,25.0,18.0,29.88,NW,310,7.0,15.0,76,-99.99,,,-99.99,,2013-01-13 14:03:00,
2013-01-13 09:12:00,25.0,18.0,29.88,NW,310,7.0,15.0,76,-99.99,,,-99.99,,2013-01-13 14:12:00,
2013-01-13 09:22:00,25.0,18.0,29.88,West,270,7.0,16.0,76,-99.99,,,-99.99,,2013-01-13 14:22:00,
2013-01-13 09:33:00,24.0,18.0,29.88,West,270,5.0,13.0,76,-99.99,,,-99.99,,2013-01-13 14:33:00,
2013-01-13 09:43:00,24.0,18.0,29.88,West,270,5.0,13.0,76,-99.99,,,-99.99,,2013-01-13 14:43:00,
2013-01-13 09:52:00,24.0,18.0,29.88,NW,305,8.0,15.0,75,-99.99,,,-99.99,,2013-01-13 14:52:00,
2013-01-13 10:03:00,24.0,18.0,29.89,NW,305,5.0,14.0,77,-99.99,,,-99.99,,2013-01-13 15:03:00,
2013-01-13 10:12:00,24.0,18.0,29.89,NW,305,5.0,14.0,77,-99.99,,,-99.99,,2013-01-13 15:12:00,
2013-01-13 10:23:00,24.0,18.0,29.89,WNW,290,8.0,17.0,77,-99.99,,,-99.99,,2013-01-13 15:23:00,
2013-01-13 10:33:00,24.0,17.0,29.89,WNW,290,8.0,17.0,76,-99.99,,,-99.99,,2013-01-13 15:33:00,
2013-01-13 10:43:00,24.0,17.0,29.89,WNW,290,8.0,17.0,76,-99.99,,,-99.99,,2013-01-13 15:43:00,
2013-01-13 10:52:00,24.0,17.0,29.90,WNW,295,9.0,14.0,75,-99.99,,,-99.99,,2013-01-13 15:52:00,
2013-01-13 11:03:00,24.0,17.0,29.90,NW,315,6.0,13.0,75,-99.99,,,-99.99,,2013-01-13 16:03:00,
2013-01-13 11:12:00,24.0,17.0,29.90,NW,315,6.0,13.0,75,-99.99,,,-99.99,,2013-01-13 16:12:00,
2013-01-13 11:23:00,24.0,17.0,29.91,NW,310,7.0,16.0,75,-99.99,,,-99.99,,2013-01-13 16:23:00,
2013-01-13 11:33:00,24.0,17.0,29.92,NW,310,6.0,14.0,75,-99.99,,,-99.99,,2013-01-13 16:33:00,
2013-01-13 11:43:00,24.0,17.0,29.92,NW,310,6.0,14.0,75,-99.99,,,-99.99,,2013-01-13 16:43:00,
2013-01-13 11:52:00,23.0,16.0,29.91,West,280,7.0,15.0,74,-99.99,,,-99.99,,2013-01-13 16:52:00,
2013-01-13 12:03:00,23.0,17.0,29.91,West,280,7.0,15.0,76,-99.99,,,-99.99,,2013-01-13 17:03:00,
2013-01-13 12:12:00,23.0,17.0,29.91,West,280,7.0,15.0,76,-99.99,,,-99.99,,2013-01-13 17:12:00,
2013-01-13 12:22:00,24.0,17.0,29.90,WNW,290,5.0,14.0,77,-99.99,,,-99.99,,2013-01-13 17:22:00,
2013-01-13 12:33:00,23.0,18.0,29.90,West,275,5.0,14.0,78,-99.99,,,-99.99,,2013-01-13 17:33:00,
2013-01-13 12:42:00,23.0,18.0,29.90,West,275,5.0,14.0,78,-99.99,,,-99.99,,2013-01-13 17:42:00,
2013-01-13 12:53:00,24.0,18.0,29.89,NW,305,6.0,13.0,79,-99.99,,,-99.99,,2013-01-13 17:53:00,
2013-01-13 13:03:00,24.0,19.0,29.89,NW,310,8.0,14.0,82,-99.99,,,-99.99,,2013-01-13 18:03:00,
2013-01-13 13:12:00,24.0,19.0,29.89,NW,310,8.0,14.0,82,-99.99,,,-99.99,,2013-01-13 18:12:00,
2013-01-13 13:23:00,24.0,19.0,29.88,West,280,7.0,12.0,83,-99.99,,,-99.99,,2013-01-13 18:23:00,
2013-01-13 13:33:00,24.0,19.0,29.88,NW,310,6.0,12.0,84,-99.99,,,-99.99,,2013-01-13 18:33:00,
2013-01-13 13:43:00,24.0,19.0,29.88,NW,310,6.0,12.0,84,-99.99,,,-99.99,,2013-01-13 18:43:00,
2013-01-13 13:53:00,23.0,19.0,29.86,West,275,6.0,12.0,85,-99.99,,,-99.99,,2013-01-13 18:53:00,
2013-01-13 14:03:00,23.0,19.0,29.85,NW,315,6.0,16.0,85,-99.99,,,-99.99,,2013-01-13 19:03:00,
2013-01-13 14:12:00,23.0,19.0,29.85,NW,315,6.0,16.0,85,-99.99,,,-99.99,,2013-01-13 19:12:00,
2013-01-13 14:22:00,23.0,19.0,29.84,NW,310,8.0,16.0,84,-99.99,,,-99.99,,2013-01-13 19:22:00,
2013-01-13 14:33:00,23.0,19.0,29.84,WNW,285,8.0,14.0,84,-99.99,,,-99.99,,2013-01-13 19:33:00,
2013-01-13 14:43:00,23.0,19.0,29.84,WNW,285,8.0,14.0,84,-99.99,,,-99.99,,2013-01-13 19:43:00,
2013-01-13 14:52:00,23.0,19.0,29.85,NW,315,6.0,15.0,84,-99.99,,,-99.99,,2013-01-13 19:52:00,
2013-01-13 15:03:00,23.0,19.0,29.86,NW,315,8.0,13.0,83,-99.99,,,-99.99,,2013-01-13 20:03:00,
2013-01-13 15:12:00,23.0,19.0,29.86,NW,315,8.0,13.0,83,-99.99,,,-99.99,,2013-01-13 20:12:00,
2013-01-13 15:22:00,23.0,19.0,29.87,West,270,7.0,14.0,83,-99.99,,,-99.99,,2013-01-13 20:22:00,
2013-01-13 15:33:00,23.0,19.0,29.88,West,270,4.0,9.0,83,-99.99,,,-99.99,,2013-01-13 20:33:00,
2013-01-13 15:43:00,23.0,19.0,29.88,West,270,4.0,9.0,83,-99.99,,,-99.99,,2013-01-13 20:43:00,
2013-01-13 15:53:00,23.0,19.0,29.88,NW,310,6.0,11.0,84,-99.99,,,-99.99,,2013-01-13 20:53:00,
2013-01-13 16:03:00,23.0,19.0,29.88,WNW,285,5.0,10.0,84,-99.99,,,-99.99,,2013-01-13 21:03:00,
2013-01-13 16:12:00,23.0,19.0,29.88,WNW,285,5.0,10.0,84,-99.99,,,-99.99,,2013-01-13 21:12:00,
2013-01-13 16:23:00,23.0,19.0,29.88,West,275,6.0,11.0,85,-99.99,,,-99.99,,2013-01-13 21:23:00,
2013-01-13 16:33:00,22.0,19.0,29.88,WNW,285,6.0,11.0,86,-99.99,,,-99.99,,2013-01-13 21:33:00,
2013-01-13 16:43:00,22.0,19.0,29.88,WNW,285,6.0,11.0,86,-99.99,,,-99.99,,2013-01-13 21:43:00,
2013-01-13 16:52:00,22.0,19.0,29.89,WNW,300,5.0,14.0,86,-99.99,,,-99.99,,2013-01-13 21:52:00,
2013-01-13 17:02:00,22.0,18.0,29.89,WNW,285,8.0,14.0,84,-99.99,,,-99.99,,2013-01-13 22:02:00,
2013-01-13 17:12:00,22.0,18.0,29.89,WNW,285,8.0,14.0,84,-99.99,,,-99.99,,2013-01-13 22:12:00,
2013-01-13 17:22:00,22.0,18.0,29.88,NNW,340,4.0,11.0,83,-99.99,,,-99.99,,2013-01-13 22:22:00,
2013-01-13 17:33:00,22.0,18.0,29.89,West,275,6.0,11.0,83,-99.99,,,-99.99,,2013-01-13 22:33:00,
2013-01-13 17:43:00,22.0,18.0,29.89,West,275,6.0,11.0,83,-99.99,,,-99.99,,2013-01-13 22:43:00,
2013-01-13 17:52:00,22.0,18.0,29.88,West,280,6.0,12.0,83,-99.99,,,-99.99,,2013-01-13 22:52:00,
2013-01-13 18:02:00,22.0,17.0,29.88,West,280,6.0,10.0,82,-99.99,,,-99.99,,2013-01-13 23:02:00,
2013-01-13 18:12:00,22.0,17.0,29.88,West,280,6.0,10.0,82,-99.99,,,-99.99,,2013-01-13 23:12:00,
2013-01-13 18:22:00,22.0,17.0,29.88,West,270,4.0,9.0,81,-99.99,,,-99.99,,2013-01-13 23:22:00,
2013-01-13 18:33:00,22.0,17.0,29.89,West,260,5.0,11.0,82,-99.99,,,-99.99,,2013-01-13 23:33:00,
2013-01-13 18:42:00,22.0,17.0,29.89,West,260,5.0,11.0,82,-99.99,,,-99.99,,2013-01-13 23:42:00,
2013-01-13 18:52:00,22.0,17.0,29.88,WSW,255,4.0,11.0,82,-99.99,,,-99.99,,2013-01-13 23:52:00,
2013-01-13 19:03:00,21.0,17.0,29.87,West,275,4.0,10.0,83,-99.99,,,-99.99,,2013-01-14 00:03:00,
2013-01-13 19:12:00,21.0,17.0,29.87,West,275,4.0,10.0,83,-99.99,,,-99.99,,2013-01-14 00:12:00,
2013-01-13 19:22:00,21.0,17.0,29.86,WNW,285,5.0,11.0,84,-99.99,,,-99.99,,2013-01-14 00:22:00,
2013-01-13 19:33:00,21.0,17.0,29.86,West,265,5.0,11.0,82,-99.99,,,-99.99,,2013-01-14 00:33:00,
2013-01-13 19:43:00,21.0,17.0,29.86,West,265,5.0,11.0,82,-99.99,,,-99.99,,2013-01-14 00:43:00,
2013-01-13 19:52:00,21.0,16.0,29.86,West,270,6.0,9.0,79,-99.99,,,-99.99,,2013-01-14 00:52:00,
2013-01-13 20:03:00,22.0,16.0,29.85,NNW,330,6.0,11.0,79,-99.99,,,-99.99,,2013-01-14 01:03:00,
2013-01-13 20:12:00,22.0,16.0,29.85,NNW,330,6.0,11.0,79,-99.99,,,-99.99,,2013-01-14 01:12:00,
2013-01-13 20:22:00,21.0,15.0,29.87,West,270,8.0,13.0,77,-99.99,,,-99.99,,2013-01-14 01:22:00,
2013-01-13 20:32:00,22.0,15.0,29.88,WSW,255,5.0,9.0,76,-99.99,,,-99.99,,2013-01-14 01:32:00,
2013-01-13 20:42:00,22.0,15.0,29.88,WSW,255,5.0,9.0,76,-99.99,,,-99.99,,2013-01-14 01:42:00,
2013-01-13 20:52:00,22.0,15.0,29.89,West,275,5.0,9.0,75,-99.99,,,-99.99,,2013-01-14 01:52:00,
2013-01-13 21:03:00,22.0,17.0,29.88,WNW,290,4.0,11.0,81,-99.99,,,-99.99,,2013-01-14 02:03:00,
2013-01-13 21:12:00,22.0,17.0,29.88,WNW,290,4.0,11.0,81,-99.99,,,-99.99,,2013-01-14 02:12:00,
2013-01-13 21:22:00,21.0,17.0,29.89,WNW,290,8.0,13.0,85,-99.99,,,-99.99,,2013-01-14 02:22:00,
2013-01-13 21:32:00,21.0,17.0,29.90,West,280,6.0,12.0,85,-99.99,,,-99.99,,2013-01-14 02:32:00,
2013-01-13 21:42:00,21.0,17.0,29.90,West,280,6.0,12.0,85,-99.99,,,-99.99,,2013-01-14 02:42:00,
2013-01-13 21:53:00,20.0,16.0,29.89,West,270,8.0,17.0,84,-99.99,,,-99.99,,2013-01-14 02:53:00,
2013-01-13 22:02:00,20.0,16.0,29.90,West,270,7.0,11.0,83,-99.99,,,-99.99,,2013-01-14 03:02:00,
2013-01-13 22:12:00,20.0,16.0,29.90,West,270,7.0,11.0,83,-99.99,,,-99.99,,2013-01-14 03:12:00,
2013-01-13 22:22:00,20.0,15.0,29.90,WSW,245,7.0,14.0,81,-99.99,,,-99.99,,2013-01-14 03:22:00,
2013-01-13 22:32:00,19.0,14.0,29.91,West,265,6.0,14.0,81,-99.99,,,-99.99,,2013-01-14 03:32:00,
2013-01-13 22:42:00,19.0,14.0,29.91,West,265,6.0,14.0,81,-99.99,,,-99.99,,2013-01-14 03:42:00,
2013-01-13 22:52:00,19.0,12.0,29.91,West,270,8.0,20.0,76,-99.99,,,-99.99,,2013-01-14 03:52:00,
2013-01-13 23:02:00,18.0,11.0,29.91,West,275,8.0,18.0,73,-99.99,,,-99.99,,2013-01-14 04:02:00,
2013-01-13 23:12:00,18.0,11.0,29.91,West,275,8.0,18.0,73,-99.99,,,-99.99,,2013-01-14 04:12:00,
2013-01-13 23:22:00,18.0,11.0,29.91,West,275,9.0,17.0,72,-99.99,,,-99.99,,2013-01-14 04:22:00,
2013-01-13 23:32:00,18.0,11.0,29.91,WSW,250,9.0,18.0,72,-99.99,,,-99.99,,2013-01-14 04:32:00,
2013-01-13 23:42:00,18.0,11.0,29.91,WSW,250,9.0,18.0,72,-99.99,,,-99.99,,2013-01-14 04:42:00,
2013-01-13 23:52:00,18.0,11.0,29.92,West,270,5.0,11.0,72,-99.99,,,-99.99,,2013-01-14 04:52:00,